Time,TemperatureF,DewpointF,PressureIn,WindDirection,WindDirectionDegrees,WindSpeedMPH,WindSpeedGustMPH,Humidity,HourlyPrecipIn,Conditions,Clouds,dailyrainin,SoftwareType,DateUTC
2013-01-27 00:02:00,28.3,17.3,30.27,SSE,147,6.0,6.0,63,0.00,,,0.00,Wunderground v.1.15,2013-01-27 06:02:00,
2013-01-27 00:08:00,28.4,17.4,30.26,ESE,115,5.0,10.0,63,0.00,,,0.00,Wunderground v.1.15,2013-01-27 06:08:00,
2013-01-27 00:14:00,28.4,17.4,30.26,SSE,148,6.0,6.0,63,0.00,,,0.00,Wunderground v.1.15,2013-01-27 06:14:00,
2013-01-27 00:19:00,28.5,17.5,30.26,SE,126,4.0,6.0,63,0.00,,,0.00,Wunderground v.1.15,2013-01-27 06:19:00,
2013-01-27 00:25:00,28.4,17.4,30.25,ESE,107,4.0,5.0,63,0.00,,,0.00,Wunderground v.1.15,2013-01-27 06:25:00,
2013-01-27 00:30:00,28.5,17.5,30.25,SE,140,4.0,5.0,63,0.00,,,0.00,Wunderground v.1.15,2013-01-27 06:30:00,
2013-01-27 00:35:00,28.4,17.4,30.25,ESE,102,1.0,4.0,63,0.00,,,0.00,Wunderground v.1.15,2013-01-27 06:35:00,
2013-01-27 00:43:00,28.5,17.5,30.24,SE,143,2.0,3.0,63,0.00,,,0.00,Wunderground v.1.15,2013-01-27 06:43:00,
2013-01-27 00:49:00,28.4,17.4,30.24,SSE,149,5.0,5.0,63,0.00,,,0.00,Wunderground v.1.15,2013-01-27 06:49:00,
2013-01-27 00:54:00,28.4,17.8,30.24,SE,142,4.0,4.0,64,0.00,,,0.00,Wunderground v.1.15,2013-01-27 06:54:00,
2013-01-27 00:59:00,28.5,17.9,30.24,SE,132,8.0,8.0,64,0.00,,,0.00,Wunderground v.1.15,2013-01-27 06:59:00,
2013-01-27 01:04:00,28.4,17.8,30.23,SSE,147,9.0,9.0,64,0.00,,,0.00,Wunderground v.1.15,2013-01-27 07:04:00,
2013-01-27 01:13:00,28.4,17.8,30.23,SSE,165,8.0,8.0,64,0.00,,,0.00,Wunderground v.1.15,2013-01-27 07:13:00,
2013-01-27 01:19:00,28.5,17.9,30.23,SSE,154,8.0,9.0,64,0.00,,,0.00,Wunderground v.1.15,2013-01-27 07:19:00,
2013-01-27 01:24:00,28.5,17.9,30.22,SSE,152,7.0,7.0,64,0.00,,,0.00,Wunderground v.1.15,2013-01-27 07:24:00,
2013-01-27 01:29:00,28.5,17.9,30.22,SSE,149,10.0,12.0,64,0.00,,,0.00,Wunderground v.1.15,2013-01-27 07:29:00,
2013-01-27 01:35:00,28.7,18.1,30.22,SSE,157,7.0,10.0,64,0.00,,,0.00,Wunderground v.1.15,2013-01-27 07:35:00,
2013-01-27 01:40:00,28.7,17.7,30.22,SSE,163,11.0,11.0,63,0.00,,,0.00,Wunderground v.1.15,2013-01-27 07:40:00,
2013-01-27 01:45:00,28.8,17.8,30.22,SSE,154,6.0,8.0,63,0.00,,,0.00,Wunderground v.1.15,2013-01-27 07:45:00,
2013-01-27 01:53:00,28.8,17.8,30.22,SE,143,7.0,7.0,63,0.00,,,0.00,Wunderground v.1.15,2013-01-27 07:53:00,
2013-01-27 01:58:00,28.9,17.9,30.22,SSE,157,9.0,9.0,63,0.00,,,0.00,Wunderground v.1.15,2013-01-27 07:58:00,
2013-01-27 02:03:00,28.9,17.9,30.21,SSE,150,11.0,11.0,63,0.00,,,0.00,Wunderground v.1.15,2013-01-27 08:03:00,
2013-01-27 02:08:00,28.9,17.9,30.21,SE,144,8.0,12.0,63,0.00,,,0.00,Wunderground v.1.15,2013-01-27 08:08:00,
2013-01-27 02:13:00,29.0,18.0,30.20,SSE,151,7.0,9.0,63,0.00,,,0.00,Wunderground v.1.15,2013-01-27 08:13:00,
2013-01-27 02:18:00,29.1,18.1,30.20,SE,144,9.0,11.0,63,0.00,,,0.00,Wunderground v.1.15,2013-01-27 08:18:00,
2013-01-27 02:23:00,29.1,18.1,30.20,SSE,164,11.0,11.0,63,0.00,,,0.00,Wunderground v.1.15,2013-01-27 08:23:00,
2013-01-27 02:28:00,29.2,18.2,30.20,SE,143,7.0,12.0,63,0.00,,,0.00,Wunderground v.1.15,2013-01-27 08:28:00,
2013-01-27 02:33:00,29.2,18.2,30.20,SE,132,8.0,10.0,63,0.00,,,0.00,Wunderground v.1.15,2013-01-27 08:33:00,
2013-01-27 02:38:00,29.2,18.2,30.20,SE,137,10.0,11.0,63,0.00,,,0.00,Wunderground v.1.15,2013-01-27 08:38:00,
2013-01-27 02:43:00,29.3,18.3,30.20,SE,136,9.0,13.0,63,0.00,,,0.00,Wunderground v.1.15,2013-01-27 08:43:00,
2013-01-27 02:48:00,29.3,18.3,30.19,SE,145,7.0,13.0,63,0.00,,,0.00,Wunderground v.1.15,2013-01-27 08:48:00,
2013-01-27 02:53:00,29.3,18.3,30.19,SSE,148,8.0,9.0,63,0.00,,,0.00,Wunderground v.1.15,2013-01-27 08:53:00,
2013-01-27 02:58:00,29.3,18.3,30.19,SSE,148,8.0,11.0,63,0.00,,,0.00,Wunderground v.1.15,2013-01-27 08:58:00,
2013-01-27 03:03:00,29.3,18.3,30.19,SE,140,7.0,9.0,63,0.00,,,0.00,Wunderground v.1.15,2013-01-27 09:03:00,
2013-01-27 03:08:00,29.4,18.3,30.18,SE,140,8.0,11.0,63,0.00,,,0.00,Wunderground v.1.15,2013-01-27 09:08:00,
2013-01-27 03:14:00,29.4,18.3,30.18,SSE,165,6.0,8.0,63,0.00,,,0.00,Wunderground v.1.15,2013-01-27 09:14:00,
2013-01-27 03:19:00,29.4,18.3,30.18,SE,140,8.0,11.0,63,0.00,,,0.00,Wunderground v.1.15,2013-01-27 09:19:00,
2013-01-27 03:24:00,29.5,18.4,30.18,SSE,147,8.0,9.0,63,0.00,,,0.00,Wunderground v.1.15,2013-01-27 09:24:00,
2013-01-27 03:29:00,29.5,18.4,30.18,SSE,159,5.0,9.0,63,0.00,,,0.00,Wunderground v.1.15,2013-01-27 09:29:00,
2013-01-27 03:34:00,29.5,18.4,30.18,SSE,150,8.0,8.0,63,0.00,,,0.00,Wunderground v.1.15,2013-01-27 09:34:00,
2013-01-27 03:39:00,29.4,18.3,30.17,SSE,154,7.0,10.0,63,0.00,,,0.00,Wunderground v.1.15,2013-01-27 09:39:00,
2013-01-27 03:44:00,29.4,18.7,30.17,SSE,161,8.0,9.0,64,0.00,,,0.00,Wunderground v.1.15,2013-01-27 09:44:00,
2013-01-27 03:49:00,29.3,18.6,30.17,SSE,150,8.0,9.0,64,0.00,,,0.00,Wunderground v.1.15,2013-01-27 09:49:00,
2013-01-27 03:54:00,29.4,18.7,30.17,SE,137,7.0,11.0,64,0.00,,,0.00,Wunderground v.1.15,2013-01-27 09:54:00,
2013-01-27 03:59:00,29.4,18.7,30.17,SE,140,6.0,11.0,64,0.00,,,0.00,Wunderground v.1.15,2013-01-27 09:59:00,
2013-01-27 04:04:00,29.4,18.7,30.17,South,171,7.0,10.0,64,0.00,,,0.00,Wunderground v.1.15,2013-01-27 10:04:00,
2013-01-27 04:09:00,29.4,18.7,30.17,SE,141,7.0,9.0,64,0.00,,,0.00,Wunderground v.1.15,2013-01-27 10:09:00,
2013-01-27 04:14:00,29.3,18.6,30.16,SE,140,7.0,9.0,64,0.00,,,0.00,Wunderground v.1.15,2013-01-27 10:14:00,
2013-01-27 04:19:00,29.3,18.6,30.16,SE,145,6.0,12.0,64,0.00,,,0.00,Wunderground v.1.15,2013-01-27 10:19:00,
2013-01-27 04:24:00,29.3,18.6,30.16,SE,144,8.0,9.0,64,0.00,,,0.00,Wunderground v.1.15,2013-01-27 10:24:00,
2013-01-27 04:29:00,29.3,18.6,30.16,SSE,155,7.0,9.0,64,0.00,,,0.00,Wunderground v.1.15,2013-01-27 10:29:00,
2013-01-27 04:34:00,29.3,19.0,30.16,SE,145,8.0,9.0,65,0.00,,,0.00,Wunderground v.1.15,2013-01-27 10:34:00,
2013-01-27 04:39:00,29.3,19.0,30.16,SSE,148,5.0,10.0,65,0.00,,,0.00,Wunderground v.1.15,2013-01-27 10:39:00,
2013-01-27 04:44:00,29.3,19.0,30.15,SE,140,4.0,8.0,65,0.00,,,0.00,Wunderground v.1.15,2013-01-27 10:44:00,
2013-01-27 04:49:00,29.4,19.1,30.15,SE,143,6.0,10.0,65,0.00,,,0.00,Wunderground v.1.15,2013-01-27 10:49:00,
2013-01-27 04:55:00,29.4,19.1,30.15,SSE,153,9.0,10.0,65,0.00,,,0.00,Wunderground v.1.15,2013-01-27 10:55:00,
2013-01-27 05:00:00,29.5,18.8,30.15,SE,143,9.0,9.0,64,0.00,,,0.00,Wunderground v.1.15,2013-01-27 11:00:00,
2013-01-27 05:05:00,29.6,18.9,30.15,SSE,150,9.0,9.0,64,0.00,,,0.00,Wunderground v.1.15,2013-01-27 11:05:00,
2013-01-27 05:10:00,29.6,18.9,30.15,SE,134,7.0,10.0,64,0.00,,,0.00,Wunderground v.1.15,2013-01-27 11:10:00,
2013-01-27 05:15:00,29.7,19.0,30.16,SE,142,9.0,11.0,64,0.00,,,0.00,Wunderground v.1.15,2013-01-27 11:15:00,
2013-01-27 05:20:00,29.7,19.0,30.15,SE,146,8.0,12.0,64,0.00,,,0.00,Wunderground v.1.15,2013-01-27 11:20:00,
2013-01-27 05:25:00,29.7,19.4,30.15,SE,137,8.0,9.0,65,0.00,,,0.00,Wunderground v.1.15,2013-01-27 11:25:00,
2013-01-27 05:30:00,29.7,19.4,30.15,South,169,9.0,11.0,65,0.00,,,0.00,Wunderground v.1.15,2013-01-27 11:30:00,
2013-01-27 05:35:00,29.7,19.4,30.15,SSE,157,5.0,9.0,65,0.00,,,0.00,Wunderground v.1.15,2013-01-27 11:35:00,
2013-01-27 05:40:00,29.7,19.4,30.15,SSE,155,8.0,11.0,65,0.00,,,0.00,Wunderground v.1.15,2013-01-27 11:40:00,
2013-01-27 05:45:00,29.8,19.5,30.15,SSE,150,9.0,11.0,65,0.00,,,0.00,Wunderground v.1.15,2013-01-27 11:45:00,
2013-01-27 05:50:00,29.8,19.5,30.15,SSE,154,9.0,11.0,65,0.00,,,0.00,Wunderground v.1.15,2013-01-27 11:50:00,
2013-01-27 05:55:00,29.8,19.5,30.15,SSE,150,7.0,9.0,65,0.00,,,0.00,Wunderground v.1.15,2013-01-27 11:55:00,
2013-01-27 06:00:00,29.8,19.5,30.15,SSE,153,7.0,8.0,65,0.00,,,0.00,Wunderground v.1.15,2013-01-27 12:00:00,
2013-01-27 06:05:00,29.9,19.6,30.14,SSE,152,5.0,9.0,65,0.00,,,0.00,Wunderground v.1.15,2013-01-27 12:05:00,
2013-01-27 06:10:00,29.9,19.9,30.14,SSE,147,7.0,7.0,66,0.00,,,0.00,Wunderground v.1.15,2013-01-27 12:10:00,
2013-01-27 06:15:00,29.9,19.9,30.14,SSE,154,7.0,9.0,66,0.00,,,0.00,Wunderground v.1.15,2013-01-27 12:15:00,
2013-01-27 06:20:00,29.9,19.9,30.15,SE,146,6.0,11.0,66,0.00,,,0.00,Wunderground v.1.15,2013-01-27 12:20:00,
2013-01-27 06:25:00,29.9,19.9,30.15,South,169,7.0,10.0,66,0.00,,,0.00,Wunderground v.1.15,2013-01-27 12:25:00,
2013-01-27 06:30:00,29.9,19.9,30.15,SSE,160,8.0,12.0,66,0.00,,,0.00,Wunderground v.1.15,2013-01-27 12:30:00,
2013-01-27 06:35:00,29.9,20.3,30.15,SSE,158,6.0,12.0,67,0.00,,,0.00,Wunderground v.1.15,2013-01-27 12:35:00,
2013-01-27 06:40:00,29.9,20.6,30.16,SSE,158,6.0,12.0,68,0.00,,,0.00,Wunderground v.1.15,2013-01-27 12:40:00,
2013-01-27 06:45:00,29.9,21.0,30.15,SSE,154,7.0,9.0,69,0.00,,,0.00,Wunderground v.1.15,2013-01-27 12:45:00,
2013-01-27 06:50:00,29.8,21.5,30.15,SSE,157,9.0,12.0,71,0.00,,,0.00,Wunderground v.1.15,2013-01-27 12:50:00,
2013-01-27 06:55:00,29.7,22.7,30.15,SSE,152,8.0,8.0,75,0.00,,,0.00,Wunderground v.1.15,2013-01-27 12:55:00,
2013-01-27 07:01:00,29.6,23.6,30.15,SE,146,7.0,8.0,78,0.00,,,0.00,Wunderground v.1.15,2013-01-27 13:01:00,
2013-01-27 07:05:00,29.5,23.8,30.15,SSE,163,8.0,9.0,79,0.00,,,0.00,Wunderground v.1.15,2013-01-27 13:05:00,
2013-01-27 07:11:00,29.4,24.0,30.16,SE,146,7.0,10.0,80,0.00,,,0.00,Wunderground v.1.15,2013-01-27 13:11:00,
2013-01-27 07:16:00,29.4,24.3,30.15,SSE,151,8.0,10.0,81,0.00,,,0.00,Wunderground v.1.15,2013-01-27 13:16:00,
2013-01-27 07:21:00,29.4,24.6,30.15,SSE,148,7.0,10.0,82,0.00,,,0.00,Wunderground v.1.15,2013-01-27 13:21:00,
2013-01-27 07:26:00,29.4,24.6,30.15,SSE,157,8.0,8.0,82,0.00,,,0.00,Wunderground v.1.15,2013-01-27 13:26:00,
2013-01-27 07:31:00,29.4,24.9,30.15,SE,144,9.0,10.0,83,0.00,,,0.00,Wunderground v.1.15,2013-01-27 13:31:00,
2013-01-27 07:36:00,29.4,25.2,30.14,SSE,151,5.0,9.0,84,0.00,,,0.00,Wunderground v.1.15,2013-01-27 13:36:00,
2013-01-27 07:42:00,29.4,25.2,30.14,SE,142,6.0,7.0,84,0.00,,,0.00,Wunderground v.1.15,2013-01-27 13:42:00,
2013-01-27 07:48:00,29.4,25.4,30.13,SSE,148,8.0,10.0,85,0.00,,,0.00,Wunderground v.1.15,2013-01-27 13:48:00,
2013-01-27 07:53:00,29.5,25.8,30.13,SE,144,7.0,7.0,86,0.00,,,0.00,Wunderground v.1.15,2013-01-27 13:53:00,
2013-01-27 07:58:00,29.6,25.9,30.13,SSE,152,8.0,10.0,86,0.00,,,0.00,Wunderground v.1.15,2013-01-27 13:58:00,
2013-01-27 08:03:00,29.8,26.1,30.13,SE,132,8.0,9.0,86,0.00,,,0.00,Wunderground v.1.15,2013-01-27 14:03:00,
2013-01-27 08:08:00,29.8,26.1,30.12,SSE,150,6.0,10.0,86,0.00,,,0.00,Wunderground v.1.15,2013-01-27 14:08:00,
2013-01-27 08:13:00,29.8,26.1,30.12,SE,145,5.0,5.0,86,0.00,,,0.00,Wunderground v.1.15,2013-01-27 14:13:00,
2013-01-27 08:18:00,29.8,26.1,30.12,SE,138,4.0,9.0,86,0.00,,,0.00,Wunderground v.1.15,2013-01-27 14:18:00,
2013-01-27 08:23:00,29.8,26.1,30.11,East,100,1.0,7.0,86,0.00,,,0.00,Wunderground v.1.15,2013-01-27 14:23:00,
2013-01-27 08:28:00,29.8,26.1,30.10,ENE,74,1.0,7.0,86,0.00,,,0.00,Wunderground v.1.15,2013-01-27 14:28:00,
2013-01-27 08:33:00,29.9,26.5,30.10,ESE,122,2.0,4.0,87,0.00,,,0.00,Wunderground v.1.15,2013-01-27 14:33:00,
2013-01-27 08:38:00,29.9,26.5,30.09,ESE,123,1.0,4.0,87,0.00,,,0.00,Wunderground v.1.15,2013-01-27 14:38:00,
2013-01-27 08:43:00,29.8,26.4,30.08,East,91,1.0,2.0,87,0.00,,,0.00,Wunderground v.1.15,2013-01-27 14:43:00,
2013-01-27 08:48:00,29.8,26.4,30.08,ESE,120,2.0,6.0,87,0.00,,,0.00,Wunderground v.1.15,2013-01-27 14:48:00,
2013-01-27 08:53:00,29.8,26.7,30.08,ESE,120,0.0,6.0,88,0.00,,,0.00,Wunderground v.1.15,2013-01-27 14:53:00,
2013-01-27 08:58:00,29.8,26.7,30.08,SE,140,0.0,6.0,88,0.00,,,0.00,Wunderground v.1.15,2013-01-27 14:58:00,
2013-01-27 09:04:00,29.9,27.1,30.08,SE,128,1.0,4.0,89,0.00,,,0.00,Wunderground v.1.15,2013-01-27 15:04:00,
2013-01-27 09:09:00,30.0,27.2,30.08,East,80,2.0,2.0,89,0.00,,,0.00,Wunderground v.1.15,2013-01-27 15:09:00,
2013-01-27 09:14:00,30.0,27.2,30.08,East,94,2.0,8.0,89,0.00,,,0.00,Wunderground v.1.15,2013-01-27 15:14:00,
2013-01-27 09:19:00,30.0,27.2,30.08,East,82,2.0,8.0,89,0.00,,,0.00,Wunderground v.1.15,2013-01-27 15:19:00,
2013-01-27 09:24:00,30.1,27.5,30.06,ESE,111,0.0,2.0,90,0.00,,,0.00,Wunderground v.1.15,2013-01-27 15:24:00,
2013-01-27 09:29:00,30.1,27.5,30.06,ESE,103,1.0,4.0,90,0.00,,,0.00,Wunderground v.1.15,2013-01-27 15:29:00,
2013-01-27 09:34:00,30.2,27.6,30.06,SE,136,2.0,6.0,90,0.00,,,0.00,Wunderground v.1.15,2013-01-27 15:34:00,
2013-01-27 09:39:00,30.2,27.6,30.05,ESE,105,1.0,6.0,90,0.00,,,0.00,Wunderground v.1.15,2013-01-27 15:39:00,
2013-01-27 09:44:00,30.2,27.6,30.06,ESE,120,2.0,2.0,90,0.00,,,0.00,Wunderground v.1.15,2013-01-27 15:44:00,
2013-01-27 09:49:00,30.1,27.8,30.06,SSE,147,2.0,8.0,91,0.00,,,0.00,Wunderground v.1.15,2013-01-27 15:49:00,
2013-01-27 09:54:00,30.1,27.8,30.06,ESE,109,4.0,5.0,91,0.00,,,0.00,Wunderground v.1.15,2013-01-27 15:54:00,
2013-01-27 09:59:00,30.2,27.9,30.06,SE,135,2.0,8.0,91,0.00,,,0.00,Wunderground v.1.15,2013-01-27 15:59:00,
2013-01-27 10:04:00,30.4,28.4,30.06,ESE,120,0.0,7.0,92,0.00,,,0.00,Wunderground v.1.15,2013-01-27 16:04:00,
2013-01-27 10:09:00,30.6,28.6,30.05,ESE,118,4.0,5.0,92,0.00,,,0.00,Wunderground v.1.15,2013-01-27 16:09:00,
2013-01-27 10:14:00,30.6,28.6,30.05,ESE,111,4.0,7.0,92,0.00,,,0.00,Wunderground v.1.15,2013-01-27 16:14:00,
2013-01-27 10:19:00,30.7,28.7,30.06,SE,146,6.0,12.0,92,0.00,,,0.00,Wunderground v.1.15,2013-01-27 16:19:00,
2013-01-27 10:24:00,30.8,29.0,30.05,SE,129,1.0,6.0,93,0.00,,,0.00,Wunderground v.1.15,2013-01-27 16:24:00,
2013-01-27 10:29:00,30.9,29.1,30.04,SSE,166,2.0,6.0,93,0.00,,,0.00,Wunderground v.1.15,2013-01-27 16:29:00,
2013-01-27 10:34:00,31.1,29.3,30.04,SSE,157,11.0,11.0,93,0.00,,,0.00,Wunderground v.1.15,2013-01-27 16:34:00,
2013-01-27 10:39:00,31.2,29.4,30.04,SSE,158,6.0,11.0,93,0.00,,,0.00,Wunderground v.1.15,2013-01-27 16:39:00,
2013-01-27 10:44:00,31.2,29.4,30.04,East,80,4.0,8.0,93,0.00,,,0.00,Wunderground v.1.15,2013-01-27 16:44:00,
2013-01-27 10:49:00,31.3,29.5,30.04,SE,127,5.0,9.0,93,0.00,,,0.00,Wunderground v.1.15,2013-01-27 16:49:00,
2013-01-27 10:54:00,31.4,29.9,30.02,ESE,107,2.0,5.0,94,0.00,,,0.00,Wunderground v.1.15,2013-01-27 16:54:00,
2013-01-27 10:59:00,31.4,29.9,30.03,NE,53,5.0,7.0,94,0.00,,,0.00,Wunderground v.1.15,2013-01-27 16:59:00,
2013-01-27 11:04:00,31.5,30.0,30.04,ESE,117,6.0,7.0,94,0.00,,,0.00,Wunderground v.1.15,2013-01-27 17:04:00,
2013-01-27 11:09:00,31.6,30.1,30.04,SE,141,7.0,9.0,94,0.00,,,0.00,Wunderground v.1.15,2013-01-27 17:09:00,
2013-01-27 11:14:00,31.6,30.1,30.03,ESE,113,7.0,8.0,94,0.00,,,0.00,Wunderground v.1.15,2013-01-27 17:14:00,
2013-01-27 11:19:00,31.5,30.0,30.01,South,174,7.0,10.0,94,0.00,,,0.00,Wunderground v.1.15,2013-01-27 17:19:00,
2013-01-27 11:24:00,31.6,30.1,30.01,SE,142,5.0,9.0,94,0.00,,,0.00,Wunderground v.1.15,2013-01-27 17:24:00,
2013-01-27 11:29:00,31.7,30.2,30.01,SSE,150,5.0,9.0,94,0.00,,,0.00,Wunderground v.1.15,2013-01-27 17:29:00,
2013-01-27 11:35:00,31.7,30.2,30.01,SE,146,4.0,9.0,94,0.00,,,0.00,Wunderground v.1.15,2013-01-27 17:35:00,
2013-01-27 11:40:00,31.8,30.3,30.01,SSE,147,9.0,10.0,94,0.00,,,0.00,Wunderground v.1.15,2013-01-27 17:40:00,
2013-01-27 11:45:00,31.9,30.4,30.01,SE,131,4.0,8.0,94,0.00,,,0.00,Wunderground v.1.15,2013-01-27 17:45:00,
2013-01-27 11:50:00,31.9,30.4,29.99,SE,140,0.0,8.0,94,0.00,,,0.00,Wunderground v.1.15,2013-01-27 17:50:00,
2013-01-27 11:55:00,31.9,30.4,29.99,SE,131,5.0,7.0,94,0.00,,,0.00,Wunderground v.1.15,2013-01-27 17:55:00,
2013-01-27 12:01:00,31.9,30.6,29.99,SE,136,5.0,5.0,95,0.00,,,0.00,Wunderground v.1.15,2013-01-27 18:01:00,
2013-01-27 12:06:00,31.9,30.6,29.98,SE,131,5.0,10.0,95,0.00,,,0.00,Wunderground v.1.15,2013-01-27 18:06:00,
2013-01-27 12:12:00,32.0,30.7,29.97,SE,145,4.0,5.0,95,0.00,,,0.00,Wunderground v.1.15,2013-01-27 18:12:00,
2013-01-27 12:18:00,32.0,30.7,29.97,SE,132,5.0,7.0,95,0.00,,,0.00,Wunderground v.1.15,2013-01-27 18:18:00,
2013-01-27 12:23:00,32.0,30.7,29.96,ESE,106,1.0,5.0,95,0.00,,,0.00,Wunderground v.1.15,2013-01-27 18:23:00,
2013-01-27 12:28:00,32.0,30.7,29.96,SSE,151,2.0,9.0,95,0.00,,,0.00,Wunderground v.1.15,2013-01-27 18:28:00,
2013-01-27 12:33:00,32.0,30.7,29.95,SSE,158,6.0,8.0,95,0.00,,,0.00,Wunderground v.1.15,2013-01-27 18:33:00,
2013-01-27 12:38:00,32.0,30.7,29.95,SSE,155,6.0,9.0,95,0.00,,,0.00,Wunderground v.1.15,2013-01-27 18:38:00,
2013-01-27 12:43:00,32.1,30.8,29.95,SE,138,5.0,9.0,95,0.00,,,0.00,Wunderground v.1.15,2013-01-27 18:43:00,
2013-01-27 12:48:00,32.1,30.8,29.94,SE,137,6.0,12.0,95,0.00,,,0.00,Wunderground v.1.15,2013-01-27 18:48:00,
2013-01-27 12:53:00,32.1,30.8,29.93,SE,124,8.0,9.0,95,0.00,,,0.00,Wunderground v.1.15,2013-01-27 18:53:00,
2013-01-27 12:58:00,32.0,30.7,29.95,East,92,7.0,11.0,95,0.00,,,0.00,Wunderground v.1.15,2013-01-27 18:58:00,
2013-01-27 13:03:00,32.1,30.8,29.93,SE,138,4.0,7.0,95,0.00,,,0.00,Wunderground v.1.15,2013-01-27 19:03:00,
2013-01-27 13:08:00,32.1,30.8,29.93,SSE,155,8.0,11.0,95,0.00,,,0.00,Wunderground v.1.15,2013-01-27 19:08:00,
2013-01-27 13:13:00,32.1,30.8,29.93,East,98,5.0,7.0,95,0.00,,,0.00,Wunderground v.1.15,2013-01-27 19:13:00,
2013-01-27 13:18:00,32.1,30.8,29.91,SE,143,7.0,10.0,95,0.00,,,0.00,Wunderground v.1.15,2013-01-27 19:18:00,
2013-01-27 13:23:00,32.1,30.8,29.91,SE,129,4.0,8.0,95,0.00,,,0.00,Wunderground v.1.15,2013-01-27 19:23:00,
2013-01-27 13:28:00,32.2,30.9,29.91,SSE,148,6.0,10.0,95,0.00,,,0.00,Wunderground v.1.15,2013-01-27 19:28:00,
2013-01-27 13:33:00,32.2,30.9,29.91,SE,144,8.0,8.0,95,0.00,,,0.00,Wunderground v.1.15,2013-01-27 19:33:00,
2013-01-27 13:38:00,32.3,31.0,29.90,SE,141,5.0,11.0,95,0.00,,,0.00,Wunderground v.1.15,2013-01-27 19:38:00,
2013-01-27 13:43:00,32.3,31.0,29.91,SE,137,6.0,7.0,95,0.00,,,0.00,Wunderground v.1.15,2013-01-27 19:43:00,
2013-01-27 13:48:00,32.4,31.4,29.90,SE,124,2.0,9.0,96,0.00,,,0.00,Wunderground v.1.15,2013-01-27 19:48:00,
2013-01-27 13:53:00,32.5,31.5,29.90,SSE,148,4.0,8.0,96,0.00,,,0.00,Wunderground v.1.15,2013-01-27 19:53:00,
2013-01-27 13:58:00,32.5,31.5,29.89,SE,140,5.0,8.0,96,0.00,,,0.00,Wunderground v.1.15,2013-01-27 19:58:00,
2013-01-27 14:03:00,32.6,31.6,29.89,SE,132,5.0,8.0,96,0.00,,,0.00,Wunderground v.1.15,2013-01-27 20:03:00,
2013-01-27 14:09:00,32.8,31.8,29.89,SE,146,7.0,7.0,96,0.00,,,0.00,Wunderground v.1.15,2013-01-27 20:09:00,
2013-01-27 14:14:00,32.8,31.8,29.89,SSE,165,5.0,9.0,96,0.00,,,0.00,Wunderground v.1.15,2013-01-27 20:14:00,
2013-01-27 14:19:00,32.8,31.8,29.89,ESE,123,5.0,10.0,96,0.00,,,0.00,Wunderground v.1.15,2013-01-27 20:19:00,
2013-01-27 14:24:00,32.9,31.9,29.88,SSE,165,5.0,9.0,96,0.00,,,0.00,Wunderground v.1.15,2013-01-27 20:24:00,
2013-01-27 14:29:00,32.9,31.9,29.88,SSE,161,6.0,9.0,96,0.00,,,0.00,Wunderground v.1.15,2013-01-27 20:29:00,
2013-01-27 14:34:00,32.9,31.9,29.88,SE,142,4.0,8.0,96,0.00,,,0.00,Wunderground v.1.15,2013-01-27 20:34:00,
2013-01-27 14:39:00,32.9,31.9,29.88,SSE,151,6.0,10.0,96,0.00,,,0.00,Wunderground v.1.15,2013-01-27 20:39:00,
2013-01-27 14:44:00,32.9,31.9,29.88,SE,145,7.0,9.0,96,0.00,,,0.00,Wunderground v.1.15,2013-01-27 20:44:00,
2013-01-27 14:49:00,33.0,32.0,29.88,SE,141,7.0,9.0,96,0.00,,,0.00,Wunderground v.1.15,2013-01-27 20:49:00,
2013-01-27 14:54:00,33.0,32.0,29.88,SE,134,8.0,8.0,96,0.00,,,0.00,Wunderground v.1.15,2013-01-27 20:54:00,
2013-01-27 14:59:00,33.0,32.0,29.88,SSE,159,7.0,10.0,96,0.00,,,0.00,Wunderground v.1.15,2013-01-27 20:59:00,
2013-01-27 15:04:00,33.0,32.0,29.87,SSE,153,8.0,10.0,96,0.00,,,0.00,Wunderground v.1.15,2013-01-27 21:04:00,
2013-01-27 15:09:00,33.0,32.0,29.87,SSE,147,6.0,8.0,96,0.00,,,0.01,Wunderground v.1.15,2013-01-27 21:09:00,
2013-01-27 15:14:00,33.0,32.0,29.87,SE,146,8.0,10.0,96,0.00,,,0.01,Wunderground v.1.15,2013-01-27 21:14:00,
2013-01-27 15:19:00,33.0,32.0,29.87,SE,141,5.0,11.0,96,0.00,,,0.01,Wunderground v.1.15,2013-01-27 21:19:00,
2013-01-27 15:24:00,33.0,32.0,29.87,SSE,153,6.0,8.0,96,0.04,,,0.02,Wunderground v.1.15,2013-01-27 21:24:00,
2013-01-27 15:29:00,33.0,32.0,29.87,SSE,150,6.0,10.0,96,0.04,,,0.02,Wunderground v.1.15,2013-01-27 21:29:00,
2013-01-27 15:34:00,33.0,32.0,29.86,SSE,147,6.0,10.0,96,0.04,,,0.02,Wunderground v.1.15,2013-01-27 21:34:00,
2013-01-27 15:39:00,33.0,32.0,29.86,SE,137,8.0,10.0,96,0.04,,,0.03,Wunderground v.1.15,2013-01-27 21:39:00,
2013-01-27 15:44:00,33.0,32.0,29.86,SSE,147,5.0,9.0,96,0.04,,,0.03,Wunderground v.1.15,2013-01-27 21:44:00,
2013-01-27 15:49:00,33.0,32.0,29.86,SE,146,7.0,9.0,96,0.06,,,0.04,Wunderground v.1.15,2013-01-27 21:49:00,
2013-01-27 15:54:00,33.1,32.1,29.86,SE,146,6.0,8.0,96,0.06,,,0.04,Wunderground v.1.15,2013-01-27 21:54:00,
2013-01-27 15:59:00,33.1,32.1,29.86,SE,143,6.0,9.0,96,0.04,,,0.04,Wunderground v.1.15,2013-01-27 21:59:00,
2013-01-27 16:04:00,33.1,32.1,29.85,SSE,151,8.0,8.0,96,0.04,,,0.05,Wunderground v.1.15,2013-01-27 22:04:00,
2013-01-27 16:09:00,33.2,32.2,29.85,SE,143,2.0,6.0,96,0.04,,,0.05,Wunderground v.1.15,2013-01-27 22:09:00,
2013-01-27 16:14:00,33.2,32.2,29.85,SE,140,4.0,8.0,96,0.06,,,0.06,Wunderground v.1.15,2013-01-27 22:14:00,
2013-01-27 16:19:00,33.1,32.1,29.85,SE,146,4.0,11.0,96,0.06,,,0.06,Wunderground v.1.15,2013-01-27 22:19:00,
2013-01-27 16:25:00,33.2,32.2,29.85,SE,144,4.0,7.0,96,0.04,,,0.06,Wunderground v.1.15,2013-01-27 22:25:00,
2013-01-27 16:30:00,33.1,32.1,29.85,ESE,112,4.0,7.0,96,0.00,,,0.07,Wunderground v.1.15,2013-01-27 22:30:00,
2013-01-27 16:35:00,33.1,32.1,29.85,ESE,120,4.0,7.0,96,0.00,,,0.07,Wunderground v.1.15,2013-01-27 22:35:00,
2013-01-27 16:40:00,33.1,32.1,29.84,SE,137,2.0,7.0,96,0.00,,,0.07,Wunderground v.1.15,2013-01-27 22:40:00,
2013-01-27 16:45:00,33.1,32.1,29.84,SE,144,2.0,7.0,96,0.04,,,0.08,Wunderground v.1.15,2013-01-27 22:45:00,
2013-01-27 16:50:00,33.2,32.2,29.84,SSE,159,4.0,7.0,96,0.04,,,0.08,Wunderground v.1.15,2013-01-27 22:50:00,
2013-01-27 16:55:00,33.2,32.2,29.84,SE,141,5.0,8.0,96,0.04,,,0.08,Wunderground v.1.15,2013-01-27 22:55:00,
2013-01-27 17:00:00,33.2,32.2,29.84,SSE,148,6.0,6.0,96,0.04,,,0.08,Wunderground v.1.15,2013-01-27 23:00:00,
2013-01-27 17:05:00,33.2,32.2,29.84,SSE,158,4.0,7.0,96,0.00,,,0.08,Wunderground v.1.15,2013-01-27 23:05:00,
2013-01-27 17:10:00,33.3,32.3,29.83,SSE,149,4.0,6.0,96,0.00,,,0.08,Wunderground v.1.15,2013-01-27 23:10:00,
2013-01-27 17:15:00,33.3,32.3,29.83,SSE,148,4.0,6.0,96,0.00,,,0.09,Wunderground v.1.15,2013-01-27 23:15:00,
2013-01-27 17:20:00,33.3,32.3,29.83,SE,141,5.0,7.0,96,0.00,,,0.09,Wunderground v.1.15,2013-01-27 23:20:00,
2013-01-27 17:25:00,33.3,32.3,29.84,SE,135,7.0,8.0,96,0.00,,,0.09,Wunderground v.1.15,2013-01-27 23:25:00,
2013-01-27 17:30:00,33.3,32.3,29.83,SSE,150,5.0,8.0,96,0.04,,,0.10,Wunderground v.1.15,2013-01-27 23:30:00,
2013-01-27 17:35:00,33.4,32.4,29.83,SE,144,4.0,7.0,96,0.04,,,0.10,Wunderground v.1.15,2013-01-27 23:35:00,
2013-01-27 17:40:00,33.4,32.4,29.83,SE,141,0.0,8.0,96,0.04,,,0.10,Wunderground v.1.15,2013-01-27 23:40:00,
2013-01-27 17:45:00,33.4,32.4,29.83,SE,132,4.0,9.0,96,0.00,,,0.10,Wunderground v.1.15,2013-01-27 23:45:00,
2013-01-27 17:50:00,33.4,32.4,29.83,SE,143,5.0,9.0,96,0.00,,,0.10,Wunderground v.1.15,2013-01-27 23:50:00,
2013-01-27 17:56:00,33.4,32.4,29.83,SSE,159,8.0,8.0,96,0.00,,,0.11,Wunderground v.1.15,2013-01-27 23:56:00,
2013-01-27 18:01:00,33.4,32.4,29.83,SSE,157,5.0,6.0,96,0.00,,,0.11,Wunderground v.1.15,2013-01-28 00:01:00,
2013-01-27 18:06:00,33.5,32.5,29.83,SE,134,2.0,8.0,96,0.00,,,0.11,Wunderground v.1.15,2013-01-28 00:06:00,
2013-01-27 18:11:00,33.5,32.5,29.83,SE,143,4.0,6.0,96,0.00,,,0.12,Wunderground v.1.15,2013-01-28 00:11:00,
2013-01-27 18:16:00,33.5,32.5,29.83,SE,136,7.0,9.0,96,0.00,,,0.12,Wunderground v.1.15,2013-01-28 00:16:00,
2013-01-27 18:20:00,33.5,32.5,29.83,SE,137,6.0,9.0,96,0.00,,,0.12,Wunderground v.1.15,2013-01-28 00:20:00,
2013-01-27 18:26:00,33.5,32.5,29.82,SE,132,4.0,7.0,96,0.00,,,0.12,Wunderground v.1.15,2013-01-28 00:26:00,
2013-01-27 18:31:00,33.5,32.7,29.82,SE,142,5.0,7.0,97,0.00,,,0.12,Wunderground v.1.15,2013-01-28 00:31:00,
2013-01-27 18:36:00,33.5,32.7,29.82,SSE,148,4.0,6.0,97,0.00,,,0.12,Wunderground v.1.15,2013-01-28 00:36:00,
2013-01-27 18:41:00,33.6,32.8,29.82,SSE,154,4.0,7.0,97,0.00,,,0.13,Wunderground v.1.15,2013-01-28 00:41:00,
2013-01-27 18:46:00,33.6,32.8,29.82,SSE,149,4.0,7.0,97,0.00,,,0.13,Wunderground v.1.15,2013-01-28 00:46:00,
2013-01-27 18:51:00,33.6,32.8,29.82,SE,144,6.0,7.0,97,0.00,,,0.13,Wunderground v.1.15,2013-01-28 00:51:00,
2013-01-27 18:56:00,33.6,32.8,29.82,SSE,153,5.0,6.0,97,0.04,,,0.14,Wunderground v.1.15,2013-01-28 00:56:00,
2013-01-27 19:01:00,33.6,32.8,29.83,SSE,152,4.0,5.0,97,0.04,,,0.14,Wunderground v.1.15,2013-01-28 01:01:00,
2013-01-27 19:06:00,33.6,32.8,29.83,SSE,148,4.0,6.0,97,0.04,,,0.14,Wunderground v.1.15,2013-01-28 01:06:00,
2013-01-27 19:12:00,33.7,32.9,29.83,SE,144,6.0,6.0,97,0.00,,,0.14,Wunderground v.1.15,2013-01-28 01:12:00,
2013-01-27 19:17:00,33.7,32.9,29.82,SSE,155,5.0,7.0,97,0.00,,,0.15,Wunderground v.1.15,2013-01-28 01:17:00,
2013-01-27 19:22:00,33.8,33.0,29.82,SSE,151,4.0,5.0,97,0.00,,,0.15,Wunderground v.1.15,2013-01-28 01:22:00,
2013-01-27 19:27:00,33.8,33.0,29.82,SSE,159,5.0,7.0,97,0.00,,,0.15,Wunderground v.1.15,2013-01-28 01:27:00,
2013-01-27 19:32:00,33.8,33.0,29.82,SSE,147,4.0,5.0,97,0.05,,,0.16,Wunderground v.1.15,2013-01-28 01:32:00,
2013-01-27 19:37:00,33.8,33.0,29.82,SSE,148,4.0,6.0,97,0.05,,,0.16,Wunderground v.1.15,2013-01-28 01:37:00,
2013-01-27 19:42:00,33.8,33.0,29.82,SE,132,5.0,5.0,97,0.05,,,0.16,Wunderground v.1.15,2013-01-28 01:42:00,
2013-01-27 19:47:00,33.8,33.0,29.82,SE,139,6.0,6.0,97,0.00,,,0.16,Wunderground v.1.15,2013-01-28 01:47:00,
2013-01-27 19:52:00,33.8,33.0,29.82,SE,145,5.0,5.0,97,0.00,,,0.17,Wunderground v.1.15,2013-01-28 01:52:00,
2013-01-27 19:57:00,33.9,33.1,29.81,SSE,153,5.0,6.0,97,0.00,,,0.17,Wunderground v.1.15,2013-01-28 01:57:00,
2013-01-27 20:02:00,33.9,33.1,29.81,SSE,151,5.0,5.0,97,0.00,,,0.17,Wunderground v.1.15,2013-01-28 02:02:00,
2013-01-27 20:08:00,33.9,33.1,29.81,SSE,152,6.0,6.0,97,0.05,,,0.18,Wunderground v.1.15,2013-01-28 02:08:00,
2013-01-27 20:14:00,33.9,33.1,29.81,SE,146,4.0,5.0,97,0.05,,,0.18,Wunderground v.1.15,2013-01-28 02:14:00,
2013-01-27 20:19:00,33.9,33.1,29.81,SSE,153,4.0,6.0,97,0.04,,,0.18,Wunderground v.1.15,2013-01-28 02:19:00,
2013-01-27 20:24:00,34.0,33.2,29.81,SSE,153,4.0,6.0,97,0.00,,,0.18,Wunderground v.1.15,2013-01-28 02:24:00,
2013-01-27 20:29:00,34.0,33.2,29.81,SSE,153,5.0,6.0,97,0.00,,,0.18,Wunderground v.1.15,2013-01-28 02:29:00,
2013-01-27 20:34:00,34.1,33.3,29.81,SSE,156,4.0,4.0,97,0.00,,,0.18,Wunderground v.1.15,2013-01-28 02:34:00,
2013-01-27 20:39:00,34.1,33.3,29.80,SSE,162,4.0,6.0,97,0.00,,,0.18,Wunderground v.1.15,2013-01-28 02:39:00,
2013-01-27 20:44:00,34.2,33.4,29.80,SSE,149,4.0,5.0,97,0.00,,,0.18,Wunderground v.1.15,2013-01-28 02:44:00,
2013-01-27 20:49:00,34.2,33.4,29.80,SSE,153,5.0,6.0,97,0.00,,,0.19,Wunderground v.1.15,2013-01-28 02:49:00,
2013-01-27 20:54:00,34.3,33.5,29.79,SSE,148,6.0,6.0,97,0.00,,,0.19,Wunderground v.1.15,2013-01-28 02:54:00,
2013-01-27 20:59:00,34.3,33.5,29.79,SSE,159,4.0,8.0,97,0.00,,,0.19,Wunderground v.1.15,2013-01-28 02:59:00,
2013-01-27 21:04:00,34.3,33.5,29.79,SSE,159,5.0,7.0,97,0.00,,,0.19,Wunderground v.1.15,2013-01-28 03:04:00,
2013-01-27 21:09:00,34.4,33.6,29.79,SSE,168,7.0,7.0,97,0.00,,,0.19,Wunderground v.1.15,2013-01-28 03:09:00,
2013-01-27 21:14:00,34.5,33.7,29.79,SSE,163,4.0,7.0,97,0.00,,,0.19,Wunderground v.1.15,2013-01-28 03:14:00,
2013-01-27 21:19:00,34.6,33.8,29.79,SSE,159,7.0,9.0,97,0.00,,,0.20,Wunderground v.1.15,2013-01-28 03:19:00,
2013-01-27 21:24:00,34.8,34.0,29.79,SSE,161,6.0,9.0,97,0.00,,,0.20,Wunderground v.1.15,2013-01-28 03:24:00,
2013-01-27 21:29:00,34.9,34.1,29.79,SSE,161,5.0,10.0,97,0.00,,,0.20,Wunderground v.1.15,2013-01-28 03:29:00,
2013-01-27 21:34:00,34.9,34.1,29.78,South,170,7.0,7.0,97,0.00,,,0.20,Wunderground v.1.15,2013-01-28 03:34:00,
2013-01-27 21:39:00,35.0,34.2,29.79,SSE,163,4.0,7.0,97,0.00,,,0.20,Wunderground v.1.15,2013-01-28 03:39:00,
2013-01-27 21:44:00,35.0,34.2,29.78,SSE,161,6.0,6.0,97,0.00,,,0.20,Wunderground v.1.15,2013-01-28 03:44:00,
2013-01-27 21:49:00,35.1,34.3,29.78,SSE,163,5.0,8.0,97,0.00,,,0.21,Wunderground v.1.15,2013-01-28 03:49:00,
2013-01-27 21:54:00,35.2,34.4,29.78,SSE,161,4.0,6.0,97,0.00,,,0.21,Wunderground v.1.15,2013-01-28 03:54:00,
2013-01-27 21:59:00,35.3,34.5,29.78,South,175,4.0,7.0,97,0.00,,,0.21,Wunderground v.1.15,2013-01-28 03:59:00,
2013-01-27 22:04:00,35.5,34.7,29.78,SSE,167,5.0,8.0,97,0.00,,,0.21,Wunderground v.1.15,2013-01-28 04:04:00,
2013-01-27 22:09:00,35.5,34.7,29.78,SSE,167,6.0,6.0,97,0.00,,,0.21,Wunderground v.1.15,2013-01-28 04:09:00,
2013-01-27 22:14:00,35.8,35.0,29.78,SSE,167,7.0,7.0,97,0.00,,,0.22,Wunderground v.1.15,2013-01-28 04:14:00,
2013-01-27 22:19:00,35.9,35.1,29.78,SSE,165,5.0,7.0,97,0.00,,,0.22,Wunderground v.1.15,2013-01-28 04:19:00,
2013-01-27 22:24:00,35.9,35.1,29.77,SSE,157,4.0,5.0,97,0.00,,,0.22,Wunderground v.1.15,2013-01-28 04:24:00,
2013-01-27 22:29:00,36.0,35.2,29.77,SSE,165,4.0,6.0,97,0.00,,,0.23,Wunderground v.1.15,2013-01-28 04:29:00,
2013-01-27 22:34:00,36.2,35.4,29.77,SSE,165,6.0,9.0,97,0.00,,,0.23,Wunderground v.1.15,2013-01-28 04:34:00,
2013-01-27 22:39:00,36.5,36.0,29.77,SSE,167,6.0,9.0,98,0.00,,,0.23,Wunderground v.1.15,2013-01-28 04:39:00,
2013-01-27 22:44:00,36.8,36.0,29.77,South,173,10.0,11.0,97,0.00,,,0.23,Wunderground v.1.15,2013-01-28 04:44:00,
2013-01-27 22:49:00,37.0,36.2,29.77,SSE,165,8.0,11.0,97,0.00,,,0.23,Wunderground v.1.15,2013-01-28 04:49:00,
2013-01-27 22:54:00,37.1,36.6,29.77,South,170,7.0,10.0,98,0.00,,,0.23,Wunderground v.1.15,2013-01-28 04:54:00,
2013-01-27 22:59:00,37.0,36.5,29.77,SSE,154,8.0,10.0,98,0.00,,,0.23,Wunderground v.1.15,2013-01-28 04:59:00,
2013-01-27 23:00:00,37.1,36.6,29.77,South,174,7.0,9.0,98,0.00,,,0.24,Wunderground v.1.15,2013-01-28 05:00:00,
2013-01-27 23:01:00,37.1,36.6,29.77,SSE,160,8.0,9.0,98,0.00,,,0.24,Wunderground v.1.15,2013-01-28 05:01:00,
2013-01-27 23:03:00,37.1,36.6,29.77,SSE,157,9.0,9.0,98,0.00,,,0.24,Wunderground v.1.15,2013-01-28 05:03:00,
2013-01-27 23:08:00,37.1,36.3,29.77,SSE,158,5.0,9.0,97,0.00,,,0.24,Wunderground v.1.15,2013-01-28 05:08:00,
2013-01-27 23:13:00,37.1,36.3,29.77,South,173,5.0,6.0,97,0.00,,,0.24,Wunderground v.1.15,2013-01-28 05:13:00,
2013-01-27 23:18:00,37.1,36.3,29.77,SSE,159,5.0,9.0,97,0.00,,,0.24,Wunderground v.1.15,2013-01-28 05:18:00,
2013-01-27 23:23:00,37.3,36.5,29.76,SSE,165,7.0,9.0,97,0.00,,,0.25,Wunderground v.1.15,2013-01-28 05:23:00,
2013-01-27 23:28:00,37.3,36.5,29.77,SSE,160,9.0,10.0,97,0.08,,,0.25,Wunderground v.1.15,2013-01-28 05:28:00,
2013-01-27 23:33:00,37.3,36.5,29.77,South,172,8.0,10.0,97,0.08,,,0.26,Wunderground v.1.15,2013-01-28 05:33:00,
2013-01-27 23:38:00,37.4,36.6,29.77,SSE,162,7.0,10.0,97,0.06,,,0.27,Wunderground v.1.15,2013-01-28 05:38:00,
2013-01-27 23:43:00,37.5,37.0,29.77,SSE,167,8.0,8.0,98,0.12,,,0.28,Wunderground v.1.15,2013-01-28 05:43:00,
2013-01-27 23:48:00,37.6,37.1,29.77,South,175,6.0,9.0,98,0.10,,,0.28,Wunderground v.1.15,2013-01-28 05:48:00,
2013-01-27 23:54:00,37.6,37.1,29.77,South,186,7.0,7.0,98,0.05,,,0.28,Wunderground v.1.15,2013-01-28 05:54:00,